Information Storage

This is the current data collected from the Raspberry Pis. Data is sampled asynchronously. The server scripts process and synchronize the data before storage.


Time PV Temperature (F) Irradiance (W/m2) Die Temperature (F) PV Voltage (V) Forecasted Irradiance (W/m2) Forecasted Power (W)
4/18/17 11:35:43 77.77 708.008 70.81 116.8
4/18/17 11:30:43 85.84 708.008 71.71 117.32
4/18/17 11:25:43 83.89 683.594 70.64 118.24
4/18/17 11:20:43 82.76 634.766 66.99 119.42
4/18/17 11:15:49 84.74 634.766 70.25 118.9
4/18/17 11:10:44 77.6 610.352 70.93 118.37
4/18/17 11:05:44 88.53 610.352 69.74 118.5
4/18/17 11:00:44 77.06 610.352 71.21 118.11
4/18/17 10:55:45 89.63 537.109 66.71 119.42
4/18/17 10:50:45 84.29 512.695 66.82 119.42
4/18/17 10:45:50 90.39 537.109 65.64 119.69
4/18/17 10:40:45 69.1 439.453 68.39 120.08
4/18/17 10:35:46 68.3 488.281 67.94 120.08
4/18/17 10:30:46 61.45 463.867 67.83 120.47
4/18/17 10:25:46 67.84 439.453 66.76 120.34
4/18/17 10:20:46 69.76 415.039 64.01 120.87
4/18/17 10:15:47 57.3 439.453 64.91 121.39
4/18/17 10:10:47 63.89 390.625 65.52 120.47
4/18/17 10:05:47 57.19 366.211 65.3 120.61
4/18/17 10:00:47 67.07 341.797 65.81 121.39
4/18/17 09:55:48 63.94 366.211 64.34 121.39
4/18/17 09:50:48 58.74 292.969 66.31 121.39
4/18/17 09:45:48 61.52 268.555 65.36 121.79
4/18/17 09:40:48 72.79 244.141 64.29 121.66
4/18/17 09:35:49 62.27 268.555 63.33 122.18
4/18/17 09:30:50 55.92 244.141 65.3 121.92
4/18/17 09:25:49 58.09 219.727 63.56 122.18
4/18/17 09:20:50 61.58 170.898 62.54 121.13
4/18/17 09:15:50 64.55 146.484 62.26 123.1
4/18/17 09:10:50 60.99 48.8281 62.09 116.66
4/18/17 09:05:55 60.11 146.484 62.26 122.31
4/18/17 09:00:51 59.58 122.07 60.13 122.44
4/18/17 08:55:51 54.9 97.6563 58.94 122.58
4/18/17 08:50:51 52.43 122.07 60.86 122.18
4/18/17 08:45:51 52.37 97.6563 60.35 122.18
4/18/17 08:40:57 50.16 24.4141 59.34 122.18
4/18/17 08:35:53 63.49 73.2422 58.89 122.71
4/18/17 08:30:52 50.59 24.4141 57.48 122.97
4/18/17 08:25:52 48.29 97.6563 57.09 123.1
4/18/17 08:20:53 47.79 0 56.24 116.14
4/18/17 08:15:53 51.67 0 56.64 114.69
4/18/17 08:10:53 48.18 0 58.55 122.05
4/18/17 08:05:53 56.43 0 57.26 121.52
4/18/17 08:00:54 73.43 0 57.59 120.47
4/18/17 07:55:54 52.71 0 55.79 119.69
4/18/17 07:50:54 51.27 0 57.14 119.55
4/18/17 07:45:54 58.43 24.4141 60.97 120.47
4/18/17 07:40:55 57.95 0 58.49 121.52
4/18/17 07:35:55 48.47 0 56.69 118.24
4/18/17 07:30:55 50.2 0 55.79 112.85
4/18/17 07:25:56 47.76 0 56.64 116.27
4/18/17 07:20:56 51.09 0 55.63 114.43
4/18/17 07:15:56 54.45 0 55.23 113.9
4/18/17 07:10:56 48.94 0 55.91 112.2
4/18/17 07:05:57 44.34 0 54.67 111.28
4/18/17 07:00:57 47.57 0 56.19 110.1
4/18/17 06:55:57 46.53 0 54.84 109.44
4/18/17 06:50:57 46.4 0 54.72 108.26
4/18/17 06:45:58 45.54 0 54.22 106.81
4/18/17 06:40:58 43.94 0 53.43 104.31
4/18/17 06:35:58 41.55 0 53.04 102.08
4/18/17 06:30:59 42.74 0 52.64 98.14
4/18/17 06:25:59 43.94 0 53.43 93.28
4/18/17 06:20:59 42.31 0 52.98 87.5
4/18/17 06:15:59 40.59 0 52.98 79.09
4/18/17 06:11:00 42.8 0 53.04 66.48
4/18/17 06:06:00 43.1 0 53.38 48.74
4/18/17 06:01:00 43.16 0 53.77 27.85
4/18/17 05:56:00 41.4 0 53.43 11.3
4/18/17 05:51:01 42.75 0 53.43 4.2
4/18/17 05:46:01 43.55 0 53.32 1.45
4/18/17 05:41:02 41.54 0 54.11 1.05
4/18/17 05:36:02 47.25 0 54.89 0.66
4/18/17 05:31:02 44.31 0 54.72 0
4/18/17 05:26:02 43.49 0 54.39 0
4/18/17 05:21:02 39.35 0 54.84 0
4/18/17 05:16:03 42.1 0 55.46 0
4/18/17 05:11:03 45.97 0 55.51 0
4/18/17 05:06:03 42.1 0 55.79 0
4/18/17 05:01:09 43.97 0 54.61 0.26
4/18/17 04:56:04 42.52 0 55.46 0
4/18/17 04:51:04 45.18 0 54.72 0
4/18/17 04:46:04 36.25 0 55.96 0
4/18/17 04:41:05 51.11 0 55.51 0
4/18/17 04:36:05 44.32 0 55.29 0
4/18/17 04:31:05 45.88 0 55.57 0
4/18/17 04:26:05 41.18 0 56.53 0
4/18/17 04:21:06 46.6 0 55.96 0
4/18/17 04:16:06 44.08 0 56.53 0.13
4/18/17 04:11:06 45.74 0 55.79 0
4/18/17 04:06:06 46.16 0 56.19 0
4/18/17 04:01:07 47.12 0 56.53 0
4/18/17 03:56:07 47.2 0 56.97 0
4/18/17 03:51:07 47.92 0 56.86 0
4/18/17 03:46:08 44.93 0 57.14 0
4/18/17 03:41:08 44.15 0 57.43 0
4/18/17 03:36:08 47.04 0 58.27 0
4/18/17 03:31:08 48.14 0 56.75 0
4/18/17 03:26:09 48.85 0 57.48 0
4/18/17 03:21:09 49.4 0 57.65 0
4/18/17 03:16:09 46.89 0 57.59 0.39
4/18/17 03:11:09 49.07 0 57.37 0
4/18/17 03:06:10 51.39 0 57.71 0
4/18/17 03:01:10 49.07 0 57.71 0
4/18/17 02:56:10 47.08 0 58.04 0
4/18/17 02:51:10 49.7 0 58.49 0
4/18/17 02:46:11 49.11 0 58.83 0
4/18/17 02:41:11 51 0 59.06 0
4/18/17 02:36:11 48.3 0 58.61 0.26
4/18/17 02:31:13 50.07 0 58.89 0
4/18/17 02:26:12 51.19 0 59.84 0
4/18/17 02:21:12 51.81 0 59.45 0.26
4/18/17 02:16:12 50.88 0 59.45 0
4/18/17 02:11:13 50.65 0 60.29 0
4/18/17 02:06:13 50.54 0 59.96 0
4/18/17 02:01:13 52.75 0 60.63 0
4/18/17 01:56:17 50.39 0 60.24 0
4/18/17 01:51:14 51.68 0 60.29 0
4/18/17 01:46:14 47.16 0 61.14 0
4/18/17 01:41:14 49.56 0 60.74 0.13
4/18/17 01:36:14 52.57 0 60.69 0.39
4/18/17 01:31:15 50.77 0 61.31 0
4/18/17 01:26:15 48.91 0 61.03 0.39
4/18/17 01:21:15 45.75 0 61.14 0
4/18/17 01:16:16 52.45 0 61.36 0
4/18/17 01:11:16 52.35 0 61.36 0
4/18/17 01:06:16 52.87 0 62.09 0
4/18/17 01:01:16 53.27 0 61.98 0
4/18/17 00:56:17 51.76 0 62.54 0
4/18/17 00:51:17 52.98 0 62.15 0
4/18/17 00:46:20 54.25 0 62.66 0.53
4/18/17 00:41:22 53.76 0 62.32 0
4/18/17 00:36:18 51.8 0 62.54 0
4/18/17 00:31:18 55.26 0 62.83 0
4/18/17 00:26:18 54.84 0 62.99 0
4/18/17 00:21:18 53.46 0 63.33 0.13
4/18/17 00:16:19 54.54 0 63.11 0
4/18/17 00:11:19 55.37 0 63.16 0
4/18/17 00:06:19 51.29 0 63.5 0
4/18/17 00:01:19 55.05 0 63.22 0.26
4/17/17 23:56:20 52.37 0 63.67 0
4/17/17 23:51:20 55.21 0 63.56 0
4/17/17 23:46:20 53.53 0 64.12 0
4/17/17 23:41:20 54.66 0 64.51 0.13
4/17/17 23:36:26 54.12 0 64.18 0
4/17/17 23:31:21 55.52 0 63.78 0
4/17/17 23:26:21 54.05 0 63.95 0
4/17/17 23:21:21 55.08 0 64.34 0.39
4/17/17 23:16:22 56.04 0 64.23 0
4/17/17 23:11:22 55.89 0 64.62 0
4/17/17 23:06:22 55.95 0 64.96 0
4/17/17 23:01:22 56.33 0 64.96 0
4/17/17 22:56:23 55.69 0 65.47 0.13
4/17/17 22:51:23 56.39 0 65.3 0
4/17/17 22:46:23 55.99 0 65.52 0
4/17/17 22:41:24 57.27 0 65.97 0
4/17/17 22:36:24 54.82 0 66.26 0
4/17/17 22:31:24 58.89 0 66.2 0.53
4/17/17 22:26:24 57.84 0 66.43 0.26
4/17/17 22:21:24 59.31 0 66.65 0
4/17/17 22:16:25 58.66 0 66.09 0
4/17/17 22:11:25 59.61 0 66.43 0.26
4/17/17 22:06:35 59.13 0 66.93 0.13
4/17/17 22:01:26 58.7 0 67.04 0.26
4/17/17 21:56:26 53.09 0 67.32 0.79
4/17/17 21:51:26 59.23 0 67.49 0.13
4/17/17 21:46:26 56.36 0 67.16 0.39
4/17/17 21:41:27 60.93 0 67.49 0.92
4/17/17 21:36:27 62.41 0 67.55 0
4/17/17 21:31:27 60.29 0 67.49 0.39
4/17/17 21:26:31 54.55 0 67.27 0.13
4/17/17 21:21:28 59.83 0 67.38 0
4/17/17 21:16:28 58.72 0 67.38 0
4/17/17 21:11:28 59.32 0 67.21 0.79
4/17/17 21:06:28 59.79 0 67.1 0.13
4/17/17 21:01:29 60.67 0 67.94 0
4/17/17 20:56:34 61.9 0 67.66 0
4/17/17 20:51:29 59.89 0 66.99 0
4/17/17 20:46:29 61.01 0 67.32 0
4/17/17 20:41:30 60.15 0 67.49 0
4/17/17 20:36:30 57.45 0 67.61 0.26
4/17/17 20:31:30 57.96 0 68 0
4/17/17 20:26:30 59.83 0 68.45 0.13
4/17/17 20:21:31 56.73 0 67.27 0.26
4/17/17 20:16:31 58.78 0 67.94 0.39
4/17/17 20:11:31 56.11 0 68.34 1.97
4/17/17 20:06:31 58.56 0 68.11 4.99
4/17/17 20:01:32 57.64 0 68.17 12.35
4/17/17 19:56:32 60.48 0 68.62 27.59
4/17/17 19:51:32 59.73 0 69.24 46.25
4/17/17 19:46:32 57.47 0 68.34 58.86
4/17/17 19:41:33 59.78 0 68.73 69.76
4/17/17 19:36:33 55.04 0 69.69 78.43
4/17/17 19:31:33 57.25 0 68.9 85.53
4/17/17 19:26:33 58.84 0 69.07 90.26
4/17/17 19:21:34 58.14 0 69.57 93.28
4/17/17 19:16:34 60.9 0 69.29 96.83
4/17/17 19:11:34 61.81 0 70.08 101.03
4/17/17 19:06:34 62.28 0 70.53 102.87
4/17/17 19:01:36 61.63 0 70.36 103.79
4/17/17 18:56:35 58.73 0 70.7 104.05
4/17/17 18:51:35 62.88 0 71.6 105.23
4/17/17 18:46:35 62.25 0 71.6 105.37
4/17/17 18:41:36 62.78 0 71.43 105.89
4/17/17 18:36:36 63.54 0 71.15 106.68
4/17/17 18:31:36 62.67 0 71.88 106.94
4/17/17 18:26:36 64.07 0 71.15 107.47
4/17/17 18:21:37 64.42 0 71.49 107.86
4/17/17 18:16:37 65.87 0 71.71 109.96
4/17/17 18:11:37 68.39 0 72.11 112.72
4/17/17 18:06:37 65.71 0 73.01 114.3
4/17/17 18:01:37 67.02 0 71.82 116.27
4/17/17 17:56:38 69.55 0 72.95 116.27
4/17/17 17:51:38 75.94 0 72.44 117.19
4/17/17 17:46:38 72.38 439.453 74.07 116.93
4/17/17 17:41:38 76.59 488.281 76.21 117.19
4/17/17 17:36:39 93.95 537.109 81.95 117.19
4/17/17 17:31:39 80.96 561.523 79.31 118.11
4/17/17 17:26:39 87.64 585.938 81.95 118.9
4/17/17 17:21:39 88.79 561.523 79.25 118.37
4/17/17 17:16:40 83.47 585.938 82.06 117.32
4/17/17 17:11:40 74.43 634.766 81.78 118.24
4/17/17 17:06:40 77.2 781.25 80.32 120.21
4/17/17 17:01:40 78.37 195.312 78.18 115.88
4/17/17 16:56:41 83.39 537.109 80.26 118.24
4/17/17 16:51:41 102.8 244.141 83.52 115.88
4/17/17 16:46:41 69.4 170.898 76.21 115.22
4/17/17 16:41:41 83.74 390.625 77.9 119.69
4/17/17 16:36:42 76.87 878.906 77.45 122.44
4/17/17 16:31:42 72.91 122.07 74.86 116.27
4/17/17 16:26:42 74.82 122.07 74.13 114.69
4/17/17 16:21:42 69.46 146.484 76.49 115.22
4/17/17 16:16:42 84.12 585.938 77.11 122.84
4/17/17 16:11:43 72.32 219.727 77.28 118.5
4/17/17 16:06:43 77.88 244.141 75.2 117.98
4/17/17 16:01:48 75.97 195.312 74.69 118.11
4/17/17 15:56:43 71.07 146.484 74.24 116.8
4/17/17 15:51:44 82.72 195.312 75.76 117.06
4/17/17 15:46:49 82.24 146.484 76.27 117.19
4/17/17 15:41:44 67.99 244.141 75.09 118.11
4/17/17 15:36:44 79.63 219.727 76.61 117.98
4/17/17 15:31:45 73.87 97.6563 76.16 116.93
4/17/17 15:26:45 81.12 292.969 75.82 118.11
4/17/17 15:21:45 77.54 170.898 76.49 116.4
4/17/17 15:16:45 85.12 219.727 77.73 115.48
4/17/17 15:11:46 77.78 292.969 79.53 116.14
4/17/17 15:06:46 85.6 390.625 79.42 116.27
4/17/17 15:01:46 92.05 439.453 80.77 115.74
4/17/17 14:56:46 88.69 463.867 80.71 115.61
4/17/17 14:51:49 91.27 708.008 79.42 118.11
4/17/17 14:46:47 103.32 708.008 80.04 119.03
4/17/17 14:41:47 85.93 415.039 78.18 118.63
4/17/17 14:36:47 87.58 634.766 78.41 120.61
4/17/17 14:31:47 76.5 390.625 76.27 119.82
4/17/17 14:26:48 75.75 292.969 75.65 119.42
4/17/17 14:21:48 76.35 268.555 73.57 118.63
4/17/17 14:16:48 72.66 146.484 74.02 118.11
4/17/17 14:11:48 62.72 146.484 73.29 117.19
4/17/17 14:06:49 84.44 219.727 75.14 116.8
4/17/17 14:01:49 89.6 317.383 76.04 117.58
4/17/17 13:56:49 73.68 292.969 75.37 117.98
4/17/17 13:51:49 78.01 268.555 76.44 117.45
4/17/17 13:46:50 72.8 366.211 75.76 117.98
4/17/17 13:41:50 80.43 366.211 78.01 118.37
4/17/17 13:36:50 84.35 292.969 74.97 118.5
4/17/17 13:31:50 89.65 268.555 75.59 117.32
4/17/17 13:26:51 70.24 463.867 76.61 118.9
4/17/17 13:21:51 73.69 341.797 74.3 117.71
4/17/17 13:16:51 67.49 366.211 73.68 118.77
4/17/17 13:11:51 77.74 366.211 73.62 119.03
4/17/17 13:06:52 75.52 366.211 73.96 121.13
4/17/17 13:01:52 72.36 170.898 69.69 118.63
4/17/17 12:56:52 68.57 122.07 70.31 116.8
4/17/17 12:51:52 59.67 195.312 68.68 119.29
4/17/17 12:46:53 69.89 146.484 69.12 118.63
4/17/17 12:41:53 62.18 146.484 69.18 118.77
4/17/17 12:36:53 62.74 122.07 66.76 118.63
4/17/17 12:31:53 63.56 97.6563 68.17 117.71
4/17/17 12:26:54 61.36 122.07 66.99 117.85
4/17/17 12:22:04 66.67 146.484 65.97 118.77
4/17/17 12:16:54 74.92 195.312 67.72 120.34
4/17/17 12:11:54 62.04 146.484 66.99 120.08
4/17/17 12:06:55 52.41 73.2422 65.92 118.11
4/17/17 12:01:55 59.32 73.2422 65.97 118.24
4/17/17 11:56:55 61.57 170.898 65.81 120.08
4/17/17 11:51:55 55.32 146.484 64.62 120.47
4/17/17 11:46:56 60.04 48.8281 64.29 119.42
4/17/17 11:41:56 61.61 122.07 64.18 120.21
4/17/17 11:36:56 57.89 122.07 66.14 121.79
4/17/17 11:31:56 63.82 73.2422 63.78 120.61
4/17/17 11:26:57 62 122.07 64.68 120.61
4/17/17 11:21:57 67.01 97.6563 65.47 120.21
4/17/17 11:16:57 60.63 73.2422 64.12 120.21
4/17/17 11:11:57 59.95 122.07 64.91 120.87
4/17/17 11:06:58 58.92 73.2422 65.02 120.21
4/17/17 11:01:58 61.53 97.6563 64.79 119.42
4/17/17 10:56:58 65.38 48.8281 65.24 119.29
4/17/17 10:51:58 62.67 24.4141 65.81 117.71
4/17/17 10:46:59 64.16 48.8281 67.38 118.9
4/17/17 10:41:59 60.4 73.2422 66.87 119.69
4/17/17 10:36:59 62.57 73.2422 66.93 119.82
4/17/17 10:31:59 54.26 48.8281 68.06 117.45
4/17/17 10:27:00 68.72 24.4141 68.73 114.96
4/17/17 10:22:00 66.64 24.4141 69.52 118.11
4/17/17 10:17:00 64.04 48.8281 68.68 117.98
4/17/17 10:12:00 70.28 48.8281 68.56 117.98
4/17/17 10:07:01 63.01 48.8281 68.96 118.63
4/17/17 10:02:01 64.61 48.8281 68.62 117.98
4/17/17 09:57:01 63.25 24.4141 68.17 117.06
4/17/17 09:52:01 60.97 24.4141 68.45 115.74
4/17/17 09:47:02 64.53 24.4141 69.07 116.53
4/17/17 09:42:07 62.07 24.4141 68.84 116.14
4/17/17 09:37:02 64.88 0 67.94 116.4
4/17/17 09:32:02 59.15 0 68.22 113.9
4/17/17 09:27:03 63.55 0 68.28 113.64
4/17/17 09:22:03 66.65 0 68.45 115.35
4/17/17 09:17:03 62.1 0 68.39 114.17
4/17/17 09:12:03 62.97 0 68.84 113.12
4/17/17 09:07:04 63.99 24.4141 69.07 113.25
4/17/17 09:02:04 64.65 0 69.41 115.09
4/17/17 08:57:04 64.37 24.4141 69.91 115.61
4/17/17 08:52:04 63.22 24.4141 69.18 114.82
4/17/17 08:47:10 65.79 0 69.35 113.77
4/17/17 08:42:05 64.62 0 69.46 111.93
4/17/17 08:37:05 67.37 0 69.86 109.57
4/17/17 08:32:05 66.52 0 69.97 110.1
4/17/17 08:27:06 65.42 0 70.25 112.85
4/17/17 08:22:06 66.05 0 70.14 112.46
4/17/17 08:17:06 69.19 0 70.87 113.9
4/17/17 08:12:06 67.79 0 70.47 111.15
4/17/17 08:07:07 64.16 0 70.76 112.2
4/17/17 08:02:07 67.1 0 70.76 110.88
4/17/17 07:57:07 66.49 0 71.32 112.2
4/17/17 07:52:07 67.06 0 71.04 114.82
4/17/17 07:47:08 63.69 0 70.42 113.25
4/17/17 07:42:08 64.05 0 70.02 111.15
4/17/17 07:37:08 63.33 0 69.63 110.88
4/17/17 07:32:08 66.43 0 69.41 110.1
4/17/17 07:27:09 64.23 0 69.24 110.62
4/17/17 07:22:09 63.5 0 68.68 108.78
4/17/17 07:17:09 62.12 0 68.45 104.58
4/17/17 07:12:09 62.5 0 67.55 103.26
4/17/17 07:07:10 63.43 0 67.49 104.31
4/17/17 07:02:10 64.14 0 67.72 105.76
4/17/17 06:57:10 63.48 0 67.77 104.84
4/17/17 06:52:10 62.9 0 67.66 101.95
4/17/17 06:47:11 62.25 0 67.77 99.85
4/17/17 06:42:11 62.57 0 68.06 94.46
4/17/17 06:37:11 62.65 0 68.28 93.02
4/17/17 06:32:11 62.21 0 68.34 90.52
4/17/17 06:27:12 62.55 0 68.11 82.51
4/17/17 06:22:12 62.04 0 67.66 73.31
4/17/17 06:17:12 62.52 0 67.61 64.64
4/17/17 06:12:12 62.27 0 67.55 47.03
4/17/17 06:07:13 63.39 0 68.62 30.35
4/17/17 06:02:13 62.64 0 68.68 16.42
4/17/17 05:53:51 62.44 0 68.73 2.63
4/17/17 05:44:54 62.77 0 68.79 1.18
4/17/17 05:39:59 63.21 0 69.01 0
4/17/17 05:34:55 63.47 0 68.84 0
4/17/17 05:29:54 62.38 0 68.84 0
4/17/17 05:25:00 61.13 0 68.79 0
4/17/17 05:20:01 62.1 0 68.68 0
4/17/17 05:14:55 62.27 0 68.51 0.39
4/17/17 05:09:55 62.57 0 68.73 0
4/17/17 05:04:56 61.93 0 68.56 0
4/17/17 04:59:56 62.04 0 68.62 0
4/17/17 04:54:56 62.46 0 68.68 0
4/17/17 04:49:56 62.49 0 68.34 0
4/17/17 04:44:57 60.29 0 68.06 0
4/17/17 04:39:57 61.98 0 68.06 0.26
4/17/17 04:34:57 61.26 0 67.66 0
4/17/17 04:29:57 61.95 0 67.83 0.13
4/17/17 04:24:58 63.12 0 68.73 0
4/17/17 04:19:58 62.59 0 69.18 0.13
4/17/17 04:14:58 62.99 0 69.29 0
4/17/17 04:10:03 62.48 0 69.8 0.13
4/17/17 04:04:59 61.55 0 69.86 0
4/17/17 03:59:59 63.84 0 69.8 0.26
4/17/17 03:54:59 64.36 0 70.02 0
4/17/17 03:49:59 64.56 0 70.36 0
4/17/17 03:45:00 63.82 0 70.14 0
4/17/17 03:40:05 62.86 0 69.97 0.26
4/17/17 03:35:00 62.16 0 69.52 0
4/17/17 03:30:00 62.79 0 69.63 0
4/17/17 03:25:01 62.7 0 69.91 0
4/17/17 03:20:01 63.32 0 69.74 0
4/17/17 03:15:01 63.4 0 69.86 0
4/17/17 03:10:01 64.48 0 69.86 0
4/17/17 03:05:02 63.49 0 69.97 0
4/17/17 03:00:07 63.36 0 69.86 0
4/17/17 02:55:02 63.04 0 69.86 0
4/17/17 02:50:02 64.4 0 70.14 0
4/17/17 02:45:03 64.31 0 70.14 0.26
4/17/17 02:40:03 64.79 0 70.25 0.39
4/17/17 02:35:03 64.49 0 70.14 0
4/17/17 02:30:03 64.01 0 70.19 0
4/17/17 02:25:04 63.27 0 69.86 0
4/17/17 02:20:14 63.84 0 69.8 0
4/17/17 02:15:04 63.21 0 69.8 0
4/17/17 02:10:04 63.69 0 69.91 0.26
4/17/17 02:05:05 63.64 0 70.14 0
4/17/17 02:00:05 64.12 0 70.25 0.13
4/17/17 01:55:05 64.23 0 70.31 0
4/17/17 01:50:05 64.3 0 70.25 0.53
4/17/17 01:45:05 63.58 0 70.36 0.53
4/17/17 01:40:06 64.48 0 70.25 0
4/17/17 01:35:06 64.07 0 70.36 0.13
4/17/17 01:30:09 62.94 0 70.08 0.13
4/17/17 01:25:12 64.23 0 70.02 0.13
4/17/17 01:20:07 63.94 0 70.25 0
4/17/17 01:15:07 64.15 0 70.19 0.26
4/17/17 01:10:07 63.73 0 70.14 0
4/17/17 01:05:08 63.86 0 70.14 0
4/17/17 01:00:08 65.63 0 70.47 0.39
4/17/17 00:55:08 65.11 0 70.64 0.66
4/17/17 00:50:13 62.69 0 70.53 0.39
4/17/17 00:45:08 64.75 0 70.64 0
4/17/17 00:40:09 64.62 0 70.64 0.53
4/17/17 00:35:09 64.65 0 70.47 0.39
4/17/17 00:30:09 64.86 0 70.7 0
4/17/17 00:25:09 64.66 0 70.64 0
4/17/17 00:20:10 68.5 0 70.76 0.53
4/17/17 00:15:10 64.96 0 70.87 0
4/17/17 00:10:10 64.89 0 70.93 0
4/17/17 00:05:10 68.57 0 71.09 0.26
4/17/17 00:00:11 62.12 0 71.09 0.39
4/16/17 23:55:11 62.22 0 71.37 0
4/16/17 23:50:11 67.57 0 71.88 0.79
4/16/17 23:45:11 65.87 0 71.82 0.39
4/16/17 23:40:12 67.2 0 72.22 0.13
4/16/17 23:35:17 67.32 0 72.44 0.13
4/16/17 23:30:12 67.36 0 72.44 0.13
4/16/17 23:25:12 69.22 0 72.5 0
4/16/17 23:20:13 67.54 0 72.84 0
4/16/17 23:15:13 67.05 0 73.06 0
4/16/17 23:10:13 68.31 0 72.89 0
4/16/17 23:05:13 67.62 0 73.18 0
4/16/17 23:00:14 68.13 0 73.51 0
4/16/17 22:55:14 67.95 0 73.74 0.13
4/16/17 22:50:14 70.06 0 74.3 0
4/16/17 22:45:14 70.18 0 74.64 0.92
4/16/17 22:40:15 71.75 0 75.09 0.39
4/16/17 22:35:15 71.2 0 75.71 0
4/16/17 22:30:15 73.13 0 77.17 0
4/16/17 22:25:15 72.1 0 77.62 0.13
4/16/17 22:20:15 71.36 0 77.56 0
4/16/17 22:15:26 69.32 0 77.39 0
4/16/17 22:10:16 70.37 0 77.45 0
4/16/17 22:05:16 69.16 0 77.56 0
4/16/17 22:00:16 71.83 0 77.34 0
4/16/17 21:55:17 71.55 0 77.96 0
4/16/17 21:50:17 66.77 0 77.68 0
4/16/17 21:45:17 67.18 0 77.96 0
4/16/17 21:40:17 69.87 0 77.96 0
4/16/17 21:35:18 70.35 0 78.18 0.39
4/16/17 21:30:23 70.99 0 78.18 0
4/16/17 21:25:18 68.38 0 78.01 0
4/16/17 21:20:18 72.44 0 78.07 0
4/16/17 21:15:19 69.48 0 76.44 0.26
4/16/17 21:10:19 69.3 0 76.89 0
4/16/17 21:05:19 70.45 0 76.83 0
4/16/17 21:00:19 70.71 0 76.72 0.39
4/16/17 20:55:21 70.94 0 78.63 0
4/16/17 20:50:20 69.29 0 77.56 0
4/16/17 20:45:20 69.91 0 78.41 0
4/16/17 20:40:20 70.28 0 77.68 0
4/16/17 20:35:20 70.86 0 78.07 0
4/16/17 20:30:21 67.49 0 78.18 0
4/16/17 20:25:26 70.34 0 78.52 0
4/16/17 20:20:21 70.9 0 78.63 0
4/16/17 20:15:22 70.6 0 78.52 0.13
4/16/17 20:10:22 71.54 0 78.52 0.39
4/16/17 20:05:22 72.33 0 78.8 3.81
4/16/17 20:00:22 71.9 0 79.02 9.72
4/16/17 19:55:22 72.73 0 79.19 23.91
4/16/17 19:50:22 71.33 0 79.53 40.07
4/16/17 19:45:23 72.88 0 79.81 52.42
4/16/17 19:40:23 74.62 0 80.09 62.27
4/16/17 19:35:23 76.15 0 80.49 73.18
4/16/17 19:30:34 77.25 0 81.56 79.75
4/16/17 19:25:24 76.16 0 81.72 89.21
4/16/17 19:20:24 76.59 0 81.44 96.3
4/16/17 19:15:24 74.94 0 81.27 99.45
4/16/17 19:10:24 76.88 0 81.44 99.98
4/16/17 19:05:25 76.77 0 81.61 102.87
4/16/17 19:00:25 76.4 0 81.61 105.37
4/16/17 18:55:25 76.19 0 81.5 105.37
4/16/17 18:50:25 79.71 0 81.89 107.47
4/16/17 18:45:25 78.46 0 81.5 107.99
4/16/17 18:40:26 80.76 0 81.67 105.76
4/16/17 18:35:26 76.8 0 81.78 107.34
4/16/17 18:30:26 76.72 0 82.23 108.39
4/16/17 18:25:26 78.14 0 82.29 107.86
4/16/17 18:20:27 77.75 24.4141 82.46 108.39
4/16/17 18:15:27 80.96 24.4141 83.07 110.49
4/16/17 18:10:27 80.99 24.4141 82.96 109.96
4/16/17 18:05:27 84.39 24.4141 83.19 110.62
4/16/17 18:00:27 80.62 24.4141 83.36 109.18
4/16/17 17:55:28 82.31 73.2422 83.58 110.88

Previous 1 2 3 4 5 6 7 8 9 10 11 12 13 14 15 16 17 Next